This is the latest recevied weather packets stored in our database for station/object DB0NU-15. If no packets are shown the sender has not sent any weather packets the latest 10 day(s).
| Time | Temp. | Humidity | Pressure | Rain* | Wind** | Luminosity | Snow |
|---|---|---|---|---|---|---|---|
| 1777522241 | 2.22° C | 52% | 1030.6 hPa | 0 mm | - | - | - |
| 1777521035 | 1.67° C | 54% | 1030.5 hPa | 0 mm | - | - | - |
| 1777519828 | 1.67° C | 55% | 1030.5 hPa | 0 mm | - | - | - |
| 1777519225 | 2.22° C | 54% | 1030.4 hPa | 0 mm | - | - | - |
| 1777518621 | 2.22° C | 53% | 1030.4 hPa | 0 mm | - | - | - |
| 1777518018 | 2.22° C | 53% | 1030.4 hPa | 0 mm | - | - | - |
| 1777517474 | 2.78° C | 52% | 1030.3 hPa | 0 mm | - | - | - |
| 1777516871 | 2.78° C | 51% | 1030.3 hPa | 0 mm | - | - | - |
| 1777516268 | 2.78° C | 51% | 1030.4 hPa | 0 mm | - | - | - |
| 1777515665 | 3.33° C | 50% | 1030.2 hPa | 0 mm | - | - | - |
| 1777515061 | 3.33° C | 50% | 1030.1 hPa | 0 mm | - | - | - |
| 1777514457 | 3.33° C | 49% | 1030.2 hPa | 0 mm | - | - | - |
| 1777513854 | 3.33° C | 49% | 1030.2 hPa | 0 mm | - | - | - |
| 1777512647 | 3.33° C | 48% | 1030 hPa | 0 mm | - | - | - |
| 1777512044 | 3.89° C | 48% | 1030.1 hPa | 0 mm | - | - | - |
| 1777511440 | 3.89° C | 48% | 1029.9 hPa | 0 mm | - | - | - |
| 1777510234 | 3.89° C | 48% | 1029.9 hPa | 0 mm | - | - | - |
| 1777509630 | 4.44° C | 47% | 1029.9 hPa | 0 mm | - | - | - |
| 1777509027 | 4.44° C | 47% | 1029.8 hPa | 0 mm | - | - | - |
| 1777508424 | 4.44° C | 46% | 1029.8 hPa | 0 mm | - | - | - |
| 1777507820 | 5° C | 46% | 1029.7 hPa | 0 mm | - | - | - |
| 1777507217 | 5° C | 46% | 1030 hPa | 0 mm | - | - | - |
| 1777506674 | 5° C | 46% | 1029.9 hPa | 0 mm | - | - | - |
| 1777506070 | 4.44° C | 47% | 1029.9 hPa | 0 mm | - | - | - |
| 1777505467 | 5° C | 48% | 1029.9 hPa | 0 mm | - | - | - |
* Rain latest hour (hover to see other rain measurements)
** Current wind speed in m/s (hover to see current wind gust speed)